period_start,C,m1,H,J0,J1,J2,J3,J4,J5,JA,JB,JC,JD,JJ,JK,JN,#
2017-10-17 00:00:49,0.00,0.15,0.00,19.60,23.34,26.57,14.33,46.59,1034.34,2047.00,3469.00,3091.01,3502.11,600.02,613.46,16.78,0000 0000 0000 0000 000000
2017-10-17 00:05:50,0.00,0.15,0.00,19.61,23.32,26.57,14.38,46.68,1034.29,2047.00,3469.00,3091.00,3502.09,600.12,613.47,16.83,0000 0000 0000 0000 000000
2017-10-17 00:10:51,0.01,0.15,0.00,19.59,23.32,26.56,14.29,46.76,1034.30,2047.01,3468.73,3090.88,3501.91,599.88,613.35,16.88,0000 0000 0000 0000 000000
2017-10-17 00:15:53,0.16,0.16,0.00,19.58,23.32,26.56,14.38,46.74,1034.34,2047.00,3464.45,3088.97,3499.62,600.25,613.68,16.93,0000 0000 0000 0000 000000
2017-10-17 00:20:54,0.01,0.16,0.00,19.58,23.30,26.57,14.41,46.80,1034.29,2047.03,3464.00,3088.65,3499.29,600.27,613.79,16.98,0000 0000 0000 0000 000000
2017-10-17 00:25:55,0.01,0.16,0.00,19.59,23.29,26.55,14.34,46.63,1034.26,2047.03,3463.98,3088.39,3499.04,600.07,613.47,17.03,0000 0000 0000 0000 000000
2017-10-17 00:30:56,0.02,0.16,0.00,19.56,23.29,26.56,14.34,46.72,1034.23,2047.02,3463.19,3088.05,3499.00,599.91,613.35,17.08,0000 0000 0000 0000 000000
2017-10-17 00:35:57,0.00,0.16,0.00,19.57,23.29,26.55,14.39,46.67,1034.25,2047.07,3463.01,3088.02,3498.99,599.99,613.57,17.13,0000 0000 0000 0000 000000
2017-10-17 00:40:59,-0.00,0.16,0.00,19.54,23.27,26.54,14.39,46.75,1034.24,2047.07,3463.00,3088.01,3498.98,600.12,613.67,17.18,0000 0000 0000 0000 000000
2017-10-17 00:46:00,0.00,0.16,0.00,19.57,23.27,26.49,14.39,46.70,1034.22,2047.11,3462.99,3088.00,3498.94,600.07,613.55,17.23,0000 0000 0000 0000 000000
2017-10-17 00:51:02,0.01,0.16,0.00,19.54,23.27,26.50,14.36,46.61,1034.21,2047.15,3462.96,3088.00,3498.89,600.30,613.68,17.28,0000 0000 0000 0000 000000
2017-10-17 00:56:03,0.02,0.16,0.00,19.54,23.26,26.49,14.36,46.52,1034.21,2047.31,3462.95,3088.00,3498.68,600.08,613.67,17.33,0000 0000 0000 0000 000000
2017-10-17 01:01:04,-0.01,0.17,0.00,19.52,23.25,26.49,14.32,46.69,1034.20,2047.38,3462.81,3088.00,3498.61,600.09,613.65,17.38,0000 0000 0000 0000 000000
2017-10-17 01:06:06,0.03,0.17,0.00,19.54,23.24,26.48,14.37,46.52,1034.20,2047.56,3462.45,3088.00,3498.41,599.98,613.49,17.43,0000 0000 0000 0000 000000
2017-10-17 01:11:07,0.02,0.17,0.00,19.53,23.24,26.48,14.39,46.64,1034.22,2047.83,3462.25,3088.00,3498.37,600.21,613.63,17.48,0000 0000 0000 0000 000000
2017-10-17 01:16:08,-0.01,0.17,0.00,19.53,23.23,26.47,14.29,46.60,1034.21,2047.79,3462.12,3087.99,3498.23,600.04,613.56,17.53,0000 0000 0000 0000 000000
2017-10-17 01:21:09,0.01,0.17,0.00,19.51,23.22,26.48,14.40,46.67,1034.21,2047.79,3462.10,3087.99,3498.05,600.20,613.73,17.58,0000 0000 0000 0000 000000
2017-10-17 01:26:10,0.01,0.17,0.00,19.53,23.22,26.45,14.34,46.63,1034.21,2047.85,3462.04,3087.99,3498.03,600.05,613.72,17.63,0000 0000 0000 0000 000000
2017-10-17 01:31:12,-0.00,0.17,0.00,19.50,23.22,26.46,14.35,46.64,1034.20,2047.89,3462.03,3087.99,3498.03,599.82,613.39,17.68,0000 0000 0000 0000 000000
2017-10-17 01:36:13,-0.00,0.17,0.00,19.52,23.21,26.44,14.30,46.67,1034.20,2047.89,3462.01,3087.99,3498.01,599.68,613.21,17.73,0000 0000 0000 0000 000000
2017-10-17 01:41:14,-0.02,0.17,0.00,19.51,23.20,26.45,14.39,46.78,1034.20,2047.67,3462.00,3087.99,3498.00,599.98,613.60,17.78,0000 0000 0000 0000 000000
2017-10-17 01:46:15,0.02,0.17,0.00,19.50,23.19,26.42,14.37,46.68,1034.20,2047.74,3462.00,3087.99,3498.00,599.98,613.53,17.83,0000 0000 0000 0000 000000
2017-10-17 01:51:16,0.00,0.17,0.00,19.48,23.19,26.43,14.40,46.78,1034.20,2047.89,3461.99,3087.99,3498.00,600.00,613.74,17.88,0000 0000 0000 0000 000000
2017-10-17 01:56:18,-0.00,0.17,0.00,19.52,23.19,26.41,14.36,46.60,1034.20,2047.84,3461.91,3087.97,3497.99,599.95,613.46,17.93,0000 0000 0000 0000 000000
2017-10-17 02:01:19,0.01,0.17,0.00,19.49,23.18,26.41,14.31,46.76,1034.20,2047.87,3461.81,3087.98,3497.99,599.78,613.38,17.98,0000 0000 0000 0000 000000
2017-10-17 02:06:20,0.01,0.17,0.00,19.50,23.17,26.40,14.41,46.67,1034.20,2047.93,3461.65,3087.98,3497.98,600.30,613.93,18.03,0000 0000 0000 0000 000000
2017-10-17 02:11:22,0.01,0.17,0.00,19.49,23.17,26.40,14.34,46.71,1034.20,2047.95,3461.18,3087.97,3497.97,600.14,613.65,18.08,0000 0000 0000 0000 000000
2017-10-17 02:16:23,0.00,0.17,0.00,19.50,23.17,26.37,14.42,46.68,1034.20,2047.98,3461.09,3087.96,3497.97,600.30,613.90,18.13,0000 0000 0000 0000 000000
2017-10-17 02:21:24,-0.00,0.17,0.00,19.49,23.16,26.38,14.37,46.69,1034.20,2047.98,3461.03,3087.97,3497.96,599.96,613.47,18.18,0000 0000 0000 0000 000000
2017-10-17 02:26:25,-0.00,0.17,0.00,19.51,23.15,26.37,14.38,46.64,1034.20,2047.98,3461.00,3087.95,3497.83,599.71,613.27,18.23,0000 0000 0000 0000 000000
2017-10-17 02:31:26,0.01,0.17,0.00,19.50,23.14,26.37,14.34,46.50,1034.20,2047.98,3460.99,3087.82,3497.49,599.86,613.52,18.28,0000 0000 0000 0000 000000
2017-10-17 02:36:27,-0.00,0.17,0.00,19.49,23.14,26.39,14.31,46.50,1034.20,2047.99,3460.99,3087.81,3497.23,600.09,613.81,18.33,0000 0000 0000 0000 000000
2017-10-17 02:41:29,0.00,0.17,0.00,19.48,23.14,26.37,14.41,46.48,1034.20,2047.99,3460.99,3087.93,3497.25,599.86,613.57,18.38,0000 0000 0000 0000 000000
2017-10-17 02:46:30,0.00,0.17,0.00,19.49,23.14,26.38,14.39,46.60,1034.20,2047.98,3460.97,3087.81,3497.09,599.98,613.51,18.43,0000 0000 0000 0000 000000
2017-10-17 02:51:31,0.01,0.17,0.00,19.51,23.14,26.36,14.42,46.69,1034.20,2047.99,3460.93,3087.67,3497.02,600.24,613.87,18.48,0000 0000 0000 0000 000000
2017-10-17 02:56:32,0.01,0.17,0.00,19.50,23.13,26.39,14.37,46.49,1034.20,2047.98,3460.48,3087.27,3497.01,600.11,613.68,18.54,0000 0000 0000 0000 000000
2017-10-17 03:01:34,0.01,0.17,0.00,19.50,23.12,26.40,14.32,46.58,1034.20,2047.99,3460.16,3087.14,3497.00,599.98,613.55,18.58,0000 0000 0000 0000 000000
2017-10-17 03:06:35,0.00,0.17,0.00,19.51,23.12,26.36,14.37,46.58,1034.20,2047.98,3460.02,3087.06,3497.00,600.18,613.82,18.63,0000 0000 0000 0000 000000
2017-10-17 03:11:36,0.00,0.17,0.00,19.52,23.12,26.36,14.35,46.49,1034.19,2047.99,3460.00,3087.03,3496.99,599.94,613.44,18.68,0000 0000 0000 0000 000000
2017-10-17 03:16:38,0.00,0.17,0.00,19.50,23.12,26.33,14.29,46.51,1034.17,2047.99,3460.00,3087.02,3496.99,599.60,613.24,18.74,0000 0000 0000 0000 000000
2017-10-17 03:21:39,0.00,0.17,0.00,19.53,23.12,26.37,14.32,46.52,1034.19,2047.99,3459.99,3087.03,3496.98,599.72,613.23,18.79,0000 0000 0000 0000 000000
2017-10-17 03:26:40,0.00,0.17,0.00,19.50,23.12,26.35,14.40,46.70,1034.19,2047.99,3459.98,3087.02,3496.98,600.00,613.66,18.84,0000 0000 0000 0000 000000
2017-10-17 03:31:41,0.00,0.17,0.00,19.56,23.12,26.37,14.33,46.68,1034.19,2047.99,3459.89,3087.00,3496.86,599.89,613.23,18.89,0000 0000 0000 0000 000000
2017-10-17 03:36:42,0.01,0.17,0.00,19.54,23.12,26.35,14.46,46.75,1034.19,2047.99,3459.57,3087.00,3496.62,600.33,614.00,18.94,0000 0000 0000 0000 000000
2017-10-17 03:41:44,0.01,0.17,0.00,19.54,23.12,26.34,14.32,46.45,1034.19,2047.99,3459.06,3087.00,3496.23,600.04,613.65,18.99,0000 0000 0000 0000 000000
2017-10-17 03:46:45,0.00,0.17,0.00,19.53,23.12,26.33,14.37,46.63,1034.19,2047.99,3459.03,3087.00,3496.09,600.19,613.63,19.04,0000 0000 0000 0000 000000
2017-10-17 03:51:46,0.00,0.17,0.00,19.51,23.12,26.35,14.30,46.59,1034.18,2047.99,3459.01,3087.00,3496.03,600.12,613.68,19.09,0000 0000 0000 0000 000000
2017-10-17 03:56:48,0.00,0.17,0.00,19.52,23.12,26.38,14.37,46.56,1034.17,2047.98,3459.00,3086.97,3496.00,599.88,613.37,19.14,0000 0000 0000 0000 000000
2017-10-17 04:01:49,0.00,0.18,0.00,19.54,23.12,26.37,14.33,46.63,1034.07,2047.99,3459.00,3086.97,3496.00,599.96,613.34,19.19,0000 0000 0000 0000 000000
2017-10-17 04:06:50,0.01,0.18,0.00,19.55,23.12,26.36,14.33,46.59,1033.98,2047.98,3458.75,3086.80,3495.98,600.13,613.46,19.24,0000 0000 0000 0000 000000
2017-10-17 04:11:52,0.01,0.18,0.00,19.52,23.12,26.39,14.34,46.61,1033.94,2047.99,3458.39,3086.66,3495.97,599.84,613.32,19.29,0000 0000 0000 0000 000000
2017-10-17 04:16:53,0.00,0.18,0.00,19.52,23.12,26.38,14.37,46.63,1033.92,2047.99,3458.21,3086.64,3495.97,599.99,613.37,19.34,0000 0000 0000 0000 000000
2017-10-17 04:21:55,0.01,0.18,0.00,19.52,23.13,26.37,14.34,46.59,1033.79,2047.99,3458.03,3086.43,3495.89,599.93,613.30,19.39,0000 0000 0000 0000 000000
2017-10-17 04:26:56,0.01,0.18,0.00,19.54,23.13,26.35,14.33,46.48,1033.76,2047.99,3458.00,3086.15,3495.55,599.85,613.10,19.44,0000 0000 0000 0000 000000
2017-10-17 04:31:57,0.01,0.18,0.00,19.52,23.13,26.33,14.39,46.61,1033.74,2047.99,3457.98,3086.03,3495.13,600.01,613.35,19.49,0000 0000 0000 0000 000000
2017-10-17 04:36:58,-0.00,0.18,0.00,19.55,23.13,26.33,14.38,46.65,1033.73,2047.98,3457.98,3086.02,3495.01,599.91,613.23,19.54,0000 0000 0000 0000 000000
2017-10-17 04:42:00,0.00,0.18,0.00,19.53,23.13,26.34,14.32,46.69,1033.73,2047.98,3457.98,3086.01,3495.00,599.95,613.17,19.59,0000 0000 0000 0000 000000
2017-10-17 04:47:01,-0.00,0.18,0.00,19.54,23.13,26.38,14.40,46.74,1033.72,2047.98,3457.96,3086.02,3495.00,600.19,613.43,19.64,0000 0000 0000 0000 000000
2017-10-17 04:52:02,0.00,0.18,0.00,19.55,23.13,26.35,14.29,46.52,1033.71,2047.98,3457.92,3086.01,3495.00,599.91,613.07,19.69,0000 0000 0000 0000 000000
2017-10-17 04:57:03,0.00,0.18,0.00,19.56,23.13,26.38,14.38,46.61,1033.71,2047.99,3457.76,3086.00,3495.00,599.98,613.12,19.74,0000 0000 0000 0000 000000
2017-10-17 05:02:05,0.00,0.18,0.00,19.53,23.14,26.37,14.38,46.58,1033.71,2047.97,3457.55,3086.00,3494.98,600.31,613.46,19.79,0000 0000 0000 0000 000000
2017-10-17 05:07:06,0.01,0.18,0.00,19.54,23.14,26.37,14.35,46.58,1033.71,2047.97,3457.13,3086.00,3494.96,600.20,613.49,19.84,0000 0000 0000 0000 000000
2017-10-17 05:12:07,-0.00,0.18,0.00,19.52,23.14,26.37,14.33,46.58,1033.71,2047.95,3457.00,3085.99,3494.81,600.01,613.18,19.89,0000 0000 0000 0000 000000
2017-10-17 05:17:08,0.01,0.18,0.00,19.57,23.14,26.37,14.25,46.56,1033.71,2047.97,3457.00,3085.98,3494.70,599.82,612.95,19.94,0000 0000 0000 0000 000000
2017-10-17 05:22:09,0.00,0.18,0.00,19.54,23.14,26.37,14.27,46.40,1033.71,2047.99,3457.00,3085.98,3494.50,599.71,613.07,19.99,0000 0000 0000 0000 000000
2017-10-17 05:27:11,0.00,0.18,0.00,19.56,23.14,26.37,14.35,46.67,1033.70,2047.98,3456.99,3085.99,3494.33,600.01,613.14,20.04,0000 0000 0000 0000 000000
2017-10-17 05:32:12,0.00,0.18,0.00,19.54,23.14,26.39,14.33,46.52,1033.71,2047.98,3456.95,3085.96,3494.08,599.84,613.03,20.09,0000 0000 0000 0000 000000
2017-10-17 05:37:13,0.01,0.18,0.00,19.54,23.14,26.40,14.31,46.63,1033.70,2047.98,3456.48,3085.92,3494.02,599.87,613.11,20.14,0000 0000 0000 0000 000000
2017-10-17 05:42:15,0.01,0.18,0.00,19.55,23.14,26.38,14.30,46.60,1033.70,2047.99,3456.05,3085.75,3494.01,599.63,612.82,20.19,0000 0000 0000 0000 000000
2017-10-17 05:47:16,0.00,0.18,0.00,19.56,23.14,26.39,14.37,46.61,1033.70,2047.99,3456.02,3085.57,3494.01,599.93,613.09,20.24,0000 0000 0000 0000 000000
2017-10-17 05:52:17,0.01,0.18,0.00,19.56,23.14,26.39,14.34,46.59,1033.71,2047.99,3456.00,3085.15,3494.00,599.91,613.03,20.29,0000 0000 0000 0000 000000
2017-10-17 05:57:18,0.00,0.18,0.00,19.53,23.14,26.39,14.34,46.52,1033.69,2047.99,3455.99,3085.07,3493.99,600.17,613.33,20.34,0000 0000 0000 0000 000000
2017-10-17 06:02:19,0.00,0.18,0.00,19.52,23.14,26.39,14.35,46.60,1033.68,2047.99,3455.92,3085.04,3493.99,600.01,613.34,20.39,0000 0000 0000 0000 000000
2017-10-17 06:07:21,0.01,0.18,0.00,19.54,23.14,26.40,14.36,46.50,1033.65,2047.99,3455.41,3085.00,3493.91,599.97,613.07,20.44,0000 0000 0000 0000 000000
2017-10-17 06:12:22,0.00,0.18,0.00,19.55,23.14,26.38,14.36,46.64,1033.66,2047.99,3455.04,3085.00,3493.66,600.37,613.24,20.49,0000 0000 0000 0000 000000
2017-10-17 06:17:23,0.00,0.18,0.00,19.53,23.14,26.40,14.29,46.57,1033.50,2048.00,3455.00,3085.00,3493.35,599.83,612.92,20.54,0000 0000 0000 0000 000000
2017-10-17 06:22:25,0.00,0.18,0.00,19.55,23.14,26.40,14.28,46.53,1033.40,2048.00,3454.99,3085.00,3493.07,599.96,612.88,20.59,0000 0000 0000 0000 000000
2017-10-17 06:27:26,0.00,0.18,0.00,19.52,23.14,26.38,14.35,46.68,1033.37,2048.01,3454.94,3085.00,3493.03,599.86,612.87,20.64,0000 0000 0000 0000 000000
2017-10-17 06:32:27,0.01,0.18,0.00,19.56,23.14,26.41,14.29,46.55,1033.42,2048.03,3454.57,3084.99,3493.00,600.25,613.34,20.69,0000 0000 0000 0000 000000
2017-10-17 06:37:28,0.00,0.18,0.00,19.52,23.14,26.35,14.38,46.62,1033.38,2048.03,3454.06,3084.97,3493.00,599.97,613.03,20.74,0000 0000 0000 0000 000000
2017-10-17 06:42:30,0.00,0.18,0.00,19.53,23.14,26.41,14.39,46.60,1033.32,2048.01,3454.00,3084.94,3492.98,600.24,613.27,20.79,0000 0000 0000 0000 000000
2017-10-17 06:47:31,0.02,0.18,0.00,19.50,23.14,26.39,14.29,46.70,1033.28,2048.02,3453.94,3084.61,3492.54,599.95,613.02,20.84,0000 0000 0000 0000 000000
2017-10-17 06:52:32,0.02,0.19,0.00,19.51,23.14,26.38,14.31,46.63,1033.23,2048.04,3453.52,3084.38,3492.13,599.89,612.89,20.89,0000 0000 0000 0000 000000
2017-10-17 06:57:33,0.00,0.19,0.00,19.53,23.14,26.39,14.34,46.59,1033.22,2048.04,3453.02,3084.11,3492.02,600.02,613.03,20.94,0000 0000 0000 0000 000000
2017-10-17 07:02:34,0.00,0.19,0.00,19.50,23.14,26.39,14.43,46.78,1033.22,2048.04,3452.99,3084.04,3492.00,600.18,613.20,20.99,0000 0000 0000 0000 000000
2017-10-17 07:07:35,0.01,0.19,0.00,19.50,23.14,26.39,14.35,46.70,1033.22,2048.08,3452.75,3084.00,3491.98,599.87,612.90,21.04,0000 0000 0000 0000 000000
2017-10-17 07:12:37,0.01,0.19,0.00,19.48,23.14,26.38,14.40,46.66,1033.22,2048.06,3452.07,3084.00,3491.80,600.11,613.12,21.09,0000 0000 0000 0000 000000
2017-10-17 07:17:38,0.02,0.19,0.00,19.50,23.14,26.41,14.31,46.83,1033.22,2048.12,3452.00,3084.00,3491.14,599.87,612.86,21.14,0000 0000 0000 0000 000000
2017-10-17 07:22:40,0.00,0.19,0.00,19.49,23.14,26.40,14.31,46.63,1033.22,2048.12,3451.91,3083.98,3491.02,599.82,612.93,21.19,0000 0000 0000 0000 000000
2017-10-17 07:27:41,0.01,0.19,0.00,19.49,23.14,26.39,14.37,46.63,1033.22,2048.11,3451.25,3083.98,3491.00,600.27,613.20,21.24,0000 0000 0000 0000 000000
2017-10-17 07:32:42,0.00,0.19,0.00,19.46,23.14,26.40,14.38,46.77,1033.22,2048.07,3451.01,3083.96,3490.93,599.73,612.79,21.29,0000 0000 0000 0000 000000
2017-10-17 07:37:43,0.01,0.19,0.00,19.47,23.14,26.39,14.39,46.77,1033.22,2048.06,3450.94,3083.90,3490.32,599.97,613.04,21.34,0000 0000 0000 0000 000000
2017-10-17 07:42:45,0.02,0.19,0.00,19.44,23.13,26.38,14.39,46.71,1033.22,2048.19,3450.40,3083.89,3490.07,600.21,613.32,21.39,0000 0000 0000 0000 000000
2017-10-17 07:47:46,0.03,0.19,0.00,19.47,23.12,26.37,14.36,46.66,1033.22,2048.46,3450.02,3083.63,3490.00,599.96,613.09,21.44,0000 0000 0000 0000 000000
2017-10-17 07:52:47,0.00,0.19,0.00,19.45,23.12,26.36,14.37,46.71,1033.22,2048.31,3449.86,3083.14,3489.97,600.14,613.26,21.49,0000 0000 0000 0000 000000
2017-10-17 07:57:49,0.01,0.19,0.00,19.42,23.12,26.38,14.31,46.82,1033.22,2048.22,3449.23,3083.05,3489.69,599.88,613.05,21.54,0000 0000 0000 0000 000000
2017-10-17 08:02:50,0.00,0.19,0.00,19.42,23.12,26.35,14.39,46.86,1033.22,2048.22,3449.01,3083.02,3489.08,599.95,613.23,21.59,0000 0000 0000 0000 000000
2017-10-17 08:07:51,0.04,0.19,0.00,19.44,23.12,26.37,14.39,46.83,1033.22,2048.45,3448.97,3083.03,3489.00,600.06,613.02,21.64,0000 0000 0000 0000 000000
2017-10-17 08:12:53,0.02,0.20,0.00,19.44,23.12,26.35,14.33,46.85,1033.22,2048.70,3448.70,3083.01,3488.86,600.29,613.47,21.69,0000 0000 0000 0000 000000
2017-10-17 08:17:54,-0.01,0.20,0.00,19.42,23.12,26.36,14.31,46.81,1033.22,2048.55,3447.98,3082.97,3488.07,599.83,613.03,21.74,0000 0000 0000 0000 000000
2017-10-17 08:22:55,0.02,0.20,0.00,19.41,23.10,26.33,14.38,46.86,1033.22,2048.40,3447.39,3082.95,3488.00,600.06,613.21,21.79,0000 0000 0000 0000 000000
2017-10-17 08:27:56,0.03,0.20,0.00,19.40,23.10,26.33,14.38,46.75,1033.22,2048.67,3447.02,3082.83,3487.98,600.08,613.34,21.84,0000 0000 0000 0000 000000
2017-10-17 08:32:57,0.00,0.20,0.00,19.42,23.09,26.34,14.34,46.73,1033.22,2048.63,3446.98,3082.69,3487.92,599.96,613.13,21.89,0000 0000 0000 0000 000000
2017-10-17 08:37:59,0.04,0.20,0.00,19.39,23.09,26.32,14.40,46.81,1033.22,2048.83,3446.62,3082.63,3487.54,599.71,612.91,21.94,0000 0000 0000 0000 000000
2017-10-17 08:43:00,0.02,0.20,0.00,19.39,23.09,26.33,14.27,46.77,1033.22,2048.89,3446.05,3082.30,3487.05,599.95,613.10,21.99,0000 0000 0000 0000 000000
2017-10-17 08:48:01,0.01,0.20,0.00,19.35,23.08,26.32,14.37,46.67,1033.22,2048.90,3445.99,3082.12,3487.00,599.90,613.20,22.04,0000 0000 0000 0000 000000
2017-10-17 08:53:03,0.01,0.20,0.00,19.37,23.07,26.32,14.34,46.68,1033.22,2048.89,3445.73,3082.03,3486.96,599.99,613.30,22.09,0000 0000 0000 0000 000000
2017-10-17 08:58:04,0.02,0.20,0.00,19.35,23.07,26.32,14.33,46.67,1033.22,2048.95,3445.07,3082.02,3486.73,599.82,613.16,22.14,0000 0000 0000 0000 000000
2017-10-17 09:03:05,0.01,0.20,0.00,19.35,23.07,26.30,14.37,46.71,1033.22,2048.97,3445.00,3082.02,3486.11,599.92,613.25,22.19,0000 0000 0000 0000 000000
2017-10-17 09:08:06,0.00,0.20,0.00,19.32,23.06,26.32,14.40,46.70,1033.22,2048.98,3444.90,3082.01,3486.01,600.21,613.72,22.24,0000 0000 0000 0000 000000
2017-10-17 09:13:07,0.01,0.21,0.00,19.34,23.05,26.29,14.28,46.69,1033.22,2048.96,3444.23,3082.00,3486.00,599.74,613.08,22.29,0000 0000 0000 0000 000000
2017-10-17 09:18:09,0.00,0.21,0.00,19.32,23.04,26.26,14.40,46.67,1033.22,2048.98,3444.01,3082.00,3485.84,600.05,613.40,22.34,0000 0000 0000 0000 000000
2017-10-17 09:23:10,0.01,0.21,0.00,19.33,23.04,26.28,14.38,46.61,1033.22,2048.98,3443.86,3081.99,3485.17,600.21,613.53,22.39,0000 0000 0000 0000 000000
2017-10-17 09:28:11,0.01,0.21,0.00,19.31,23.04,26.26,14.37,46.63,1033.22,2048.99,3443.16,3081.98,3485.00,600.12,613.46,22.44,0000 0000 0000 0000 000000
2017-10-17 09:33:13,0.03,0.21,0.00,19.32,23.02,26.31,14.38,46.67,1033.22,2048.98,3442.85,3081.45,3484.45,599.73,613.11,22.50,0000 0000 0000 0000 000000
2017-10-17 09:38:14,0.01,0.21,0.00,19.31,23.02,26.26,14.39,46.74,1033.22,2048.98,3442.12,3081.14,3484.02,600.10,613.55,22.55,0000 0000 0000 0000 000000
2017-10-17 09:43:16,0.01,0.21,0.00,19.31,23.02,26.27,14.41,46.83,1033.22,2048.98,3441.97,3081.01,3483.44,600.00,613.42,22.60,0000 0000 0000 0000 000000
2017-10-17 09:48:17,0.01,0.21,0.00,19.29,23.02,26.24,14.31,46.71,1033.21,2048.99,3441.15,3080.95,3483.01,600.01,613.40,22.65,0000 0000 0000 0000 000000
2017-10-17 09:53:18,0.00,0.21,0.00,19.28,23.00,26.23,14.32,46.77,1033.22,2048.99,3440.99,3080.85,3482.90,599.90,613.34,22.70,0000 0000 0000 0000 000000
2017-10-17 09:58:19,-0.00,0.21,0.00,19.29,22.99,26.25,14.38,46.80,1033.22,2048.99,3440.91,3080.93,3482.51,600.12,613.60,22.75,0000 0000 0000 0000 000000
2017-10-17 10:03:21,0.02,0.21,0.00,19.25,22.99,26.25,14.28,46.69,1033.22,2048.99,3440.21,3080.91,3482.07,599.74,613.19,22.80,0000 0000 0000 0000 000000
2017-10-17 10:08:21,0.00,0.21,0.00,19.25,22.99,26.23,14.35,46.77,1033.22,2048.99,3440.00,3080.92,3482.00,600.09,613.57,22.85,0000 0000 0000 0000 000000
2017-10-17 10:13:23,0.00,0.21,0.00,19.23,22.97,26.22,14.44,46.74,1033.22,2048.99,3440.00,3080.93,3481.99,600.11,613.76,22.90,0000 0000 0000 0000 000000
2017-10-17 10:18:24,0.00,0.21,0.00,19.26,22.97,26.22,14.42,46.69,1033.21,2048.99,3439.87,3080.94,3481.95,600.22,613.75,22.95,0000 0000 0000 0000 000000
2017-10-17 10:23:25,0.02,0.21,0.00,19.24,22.97,26.19,14.30,46.75,1033.20,2048.99,3439.26,3080.91,3481.69,600.01,613.50,23.00,0000 0000 0000 0000 000000
2017-10-17 10:28:26,0.00,0.21,0.00,19.25,22.96,26.18,14.36,46.67,1033.20,2048.99,3439.01,3080.91,3481.25,600.14,613.61,23.05,0000 0000 0000 0000 000000
2017-10-17 10:33:28,0.00,0.21,0.00,19.21,22.95,26.18,14.33,46.75,1033.18,2048.99,3439.00,3080.94,3481.04,599.78,613.20,23.10,0000 0000 0000 0000 000000
2017-10-17 10:38:29,0.01,0.21,0.00,19.23,22.94,26.18,14.35,46.75,1033.20,2048.99,3438.74,3080.89,3481.00,600.06,613.56,23.15,0000 0000 0000 0000 000000
2017-10-17 10:43:31,0.01,0.22,0.00,19.21,22.94,26.19,14.45,46.73,1033.21,2048.99,3438.07,3080.73,3480.98,600.37,614.00,23.20,0000 0000 0000 0000 000000
2017-10-17 10:48:32,0.00,0.22,0.00,19.23,22.93,26.18,14.37,46.66,1033.22,2049.00,3438.00,3080.81,3480.94,600.18,613.81,23.25,0000 0000 0000 0000 000000
2017-10-17 10:53:33,0.00,0.22,0.00,19.21,22.92,26.17,14.38,46.73,1033.22,2049.00,3437.98,3080.92,3480.61,600.13,613.76,23.30,0000 0000 0000 0000 000000
2017-10-17 10:58:35,0.03,0.22,0.00,19.21,22.92,26.15,14.46,46.92,1033.18,2049.00,3437.52,3080.74,3480.06,600.31,613.94,23.35,0000 0000 0000 0000 000000
2017-10-17 11:03:36,0.00,0.22,0.00,19.19,22.92,26.15,14.39,46.88,1033.12,2049.00,3437.05,3080.73,3480.00,600.20,613.68,23.40,0000 0000 0000 0000 000000
2017-10-17 11:08:37,0.00,0.22,0.00,19.18,22.90,26.16,14.40,46.74,1033.17,2049.01,3437.00,3080.62,3479.99,600.16,613.79,23.45,0000 0000 0000 0000 000000
2017-10-17 11:13:38,0.01,0.22,0.00,19.16,22.89,26.17,14.33,46.67,1033.20,2049.01,3436.90,3080.47,3479.96,599.71,613.41,23.50,0000 0000 0000 0000 000000
2017-10-17 11:18:40,0.02,0.22,0.00,19.15,22.89,26.13,14.29,46.73,1033.21,2049.00,3436.18,3080.17,3479.59,600.08,613.80,23.55,0000 0000 0000 0000 000000
2017-10-17 11:23:41,0.00,0.22,0.00,19.18,22.89,26.12,14.42,46.78,1033.22,2049.00,3436.00,3080.05,3479.08,600.35,613.86,23.60,0000 0000 0000 0000 000000
2017-10-17 11:28:42,0.00,0.22,0.00,19.16,22.87,26.10,14.40,46.84,1033.22,2049.00,3436.00,3080.03,3479.00,599.90,613.61,23.65,0000 0000 0000 0000 000000
2017-10-17 11:33:44,0.00,0.22,0.00,19.19,22.87,26.12,14.38,46.70,1033.22,2049.01,3435.87,3080.02,3479.00,599.95,613.61,23.70,0000 0000 0000 0000 000000
2017-10-17 11:38:45,0.01,0.22,0.00,19.16,22.87,26.09,14.39,46.56,1033.22,2049.01,3435.32,3080.02,3478.99,600.07,613.72,23.75,0000 0000 0000 0000 000000
2017-10-17 11:43:46,0.00,0.22,0.00,19.19,22.87,26.11,14.41,46.63,1033.22,2049.01,3435.02,3080.00,3478.89,600.17,614.00,23.80,0000 0000 0000 0000 000000
2017-10-17 11:48:47,0.01,0.22,0.00,19.18,22.85,26.10,14.37,46.62,1033.22,2049.02,3434.99,3080.01,3478.61,600.02,613.77,23.85,0000 0000 0000 0000 000000
2017-10-17 11:53:48,0.01,0.22,0.00,19.16,22.84,26.08,14.46,46.68,1033.22,2049.03,3434.91,3080.01,3478.15,600.41,614.14,23.90,0000 0000 0000 0000 000000
2017-10-17 11:58:50,0.01,0.22,0.00,19.18,22.84,26.06,14.35,46.75,1033.22,2049.03,3434.53,3080.01,3478.02,600.09,613.78,23.95,0000 0000 0000 0000 000000
2017-10-17 12:03:51,0.01,0.22,0.00,19.15,22.84,26.08,14.36,46.64,1033.22,2049.03,3434.10,3080.00,3478.00,599.90,613.70,24.00,0000 0000 0000 0000 000000
2017-10-17 12:08:52,0.00,0.22,0.00,19.19,22.84,26.07,14.31,46.67,1033.22,2049.03,3434.01,3080.01,3478.00,600.01,613.75,24.05,0000 0000 0000 0000 000000
2017-10-17 12:13:53,-0.00,0.22,0.00,19.15,22.83,26.07,14.33,46.77,1033.21,2049.02,3434.00,3080.01,3477.99,600.29,614.18,24.10,0000 0000 0000 0000 000000
2017-10-17 12:18:54,0.00,0.22,0.00,19.18,22.82,26.07,14.33,46.78,1033.20,2049.05,3433.98,3080.00,3477.96,599.60,613.29,24.15,0000 0000 0000 0000 000000
2017-10-17 12:23:56,0.01,0.22,0.00,19.14,22.82,26.05,14.37,46.73,1033.21,2049.08,3433.57,3080.00,3477.78,599.84,613.68,24.20,0000 0000 0000 0000 000000
2017-10-17 12:28:57,0.01,0.22,0.00,19.18,22.82,26.04,14.45,46.78,1033.19,2049.12,3433.08,3080.01,3477.39,600.13,613.74,24.25,0000 0000 0000 0000 000000
2017-10-17 12:33:59,0.00,0.22,0.00,19.15,22.82,26.04,14.28,46.81,1033.10,2049.09,3433.00,3080.00,3477.05,599.67,613.39,24.30,0000 0000 0000 0000 000000
2017-10-17 12:39:00,-0.00,0.22,0.00,19.13,22.82,26.07,14.33,46.67,1033.09,2049.13,3432.96,3080.00,3477.00,599.91,613.60,24.35,0000 0000 0000 0000 000000
2017-10-17 12:44:01,0.02,0.22,0.00,19.11,22.81,26.08,14.29,46.81,1033.04,2049.16,3432.46,3079.99,3477.00,599.64,613.42,24.40,0000 0000 0000 0000 000000
2017-10-17 12:49:02,0.00,0.23,0.00,19.12,22.80,26.07,14.44,46.80,1033.09,2049.19,3432.04,3079.99,3476.97,600.19,614.02,24.45,0000 0000 0000 0000 000000
2017-10-17 12:54:03,0.01,0.23,0.00,19.11,22.79,26.05,14.41,46.55,1033.22,2049.20,3432.00,3079.99,3476.70,599.92,613.75,24.50,0000 0000 0000 0000 000000